Gunlock Reservoir Weather Center

Moon Phase Calendar



Gunlock Reservoir Water Level
Online Cameras

 


      

Current Conditions in Ivins
11/27/2021 4:06:33 AM

33°F
Feels Like 25
Clear
Humidity
22%
Pressure
30.15"
Wind
9.6 mph (NNE)
Dew Point
2°F
UV Index
0/10 (Low)
Visibility
6 mi

Hourly Forecast

Date & Time Sat, Nov 27
4:00 AM
Sat, Nov 27
5:00 AM
Sat, Nov 27
6:00 AM
Sat, Nov 27
7:00 AM
Sat, Nov 27
8:00 AM
Sat, Nov 27
9:00 AM
Sat, Nov 27
10:00 AM
Sat, Nov 27
11:00 AM
Sat, Nov 27
12:00 PM
Sat, Nov 27
1:00 PM
Sat, Nov 27
2:00 PM
Sat, Nov 27
3:00 PM
Sat, Nov 27
4:00 PM
Sat, Nov 27
5:00 PM
Sat, Nov 27
6:00 PM
Sat, Nov 27
7:00 PM
Sat, Nov 27
8:00 PM
Sat, Nov 27
9:00 PM
Sat, Nov 27
10:00 PM
Sat, Nov 27
11:00 PM
Sun, Nov 28
12:00 AM
Sun, Nov 28
1:00 AM
Sun, Nov 28
2:00 AM
Sun, Nov 28
3:00 AM
Sun, Nov 28
4:00 AM
Sun, Nov 28
5:00 AM
Sun, Nov 28
6:00 AM
Sun, Nov 28
7:00 AM
Sun, Nov 28
8:00 AM
Sun, Nov 28
9:00 AM
Sun, Nov 28
10:00 AM
Sun, Nov 28
11:00 AM
Sun, Nov 28
12:00 PM
Sun, Nov 28
1:00 PM
Sun, Nov 28
2:00 PM
Sun, Nov 28
3:00 PM
Sun, Nov 28
4:00 PM
Sun, Nov 28
5:00 PM
Sun, Nov 28
6:00 PM
Sun, Nov 28
7:00 PM
Sun, Nov 28
8:00 PM
Sun, Nov 28
9:00 PM
Sun, Nov 28
10:00 PM
Sun, Nov 28
11:00 PM
Mon, Nov 29
12:00 AM
Mon, Nov 29
1:00 AM
Mon, Nov 29
2:00 AM
Mon, Nov 29
3:00 AM
Condition
Clear

Clear

Clear

Clear

Clear

Clear

Clear

Clear

Clear

Clear

Clear

Clear

Clear

Clear

Clear

Clear

Clear

Clear

Clear

Clear

Clear

Clear

Clear

Clear

Clear

Clear

Clear

Clear

Clear

Clear

Clear

Clear

Clear

Clear

Clear

Clear

Clear

Clear

Clear

Clear

Clear

Clear

Clear

Clear

Clear

Clear

Clear

Clear
Temperature 33°F35°F38°F40°F43°F51°F56°F59°F62°F65°F66°F66°F65°F57°F54°F53°F53°F52°F51°F50°F50°F49°F49°F48°F48°F48°F48°F47°F48°F54°F59°F62°F64°F66°F67°F68°F67°F59°F55°F55°F55°F54°F54°F53°F53°F52°F51°F51°F
Feels Like 25°F28°F31°F34°F37°F46°F52°F56°F59°F61°F63°F63°F62°F53°F50°F49°F49°F48°F47°F46°F46°F45°F45°F44°F44°F44°F43°F43°F44°F50°F55°F59°F61°F63°F65°F65°F64°F56°F52°F52°F52°F51°F51°F50°F49°F49°F48°F48°F
Cloudiness 4%5%7%9%9%9%8%8%7%5%3%2%2%2%0%0%0%1%1%1%0%0%0%0%0%0%0%1%10%9%7%7%3%3%3%3%2%2%0%0%0%0%0%0%0%0%0%0%
Visibility 6 mi6 mi6 mi6 mi6 mi6 mi6 mi6 mi6 mi6 mi6 mi6 mi6 mi6 mi6 mi6 mi6 mi6 mi6 mi6 mi6 mi6 mi6 mi6 mi6 mi6 mi6 mi6 mi6 mi6 mi6 mi6 mi6 mi6 mi6 mi6 mi6 mi6 mi6 mi6 mi6 mi6 mi6 mi6 mi6 mi6 mi6 mi6 mi
Precipitation 0%0%0%0%0%0%0%0%0%0%0%0%0%0%0%0%0%0%0%0%0%0%0%0%0%0%0%0%0%0%0%0%0%0%0%0%0%0%0%0%0%0%0%0%0%0%0%0%
Humidity 22%22%23%23%22%20%15%13%12%11%11%12%14%21%22%23%24%25%25%26%27%27%28%28%28%29%30%31%31%28%23%22%20%19%19%19%20%28%31%31%33%33%34%35%35%36%37%37%
Dew Point 2°F4°F6°F8°F9°F9°F8°F7°F7°F8°F9°F11°F13°F16°F14°F14°F15°F15°F15°F15°F15°F15°F15°F15°F15°F16°F16°F17°F17°F19°F20°F20°F21°F22°F22°F22°F23°F24°F23°F24°F24°F24°F24°F24°F24°F24°F24°F24°F
Pressure 30.15"30.15"30.15"30.18"30.18"30.18"30.15"30.15"30.12"30.09"30.06"30.03"30.06"30.06"30.09"30.15"30.18"30.21"30.21"30.24"30.24"30.24"30.24"30.24"30.24"30.24"30.27"30.3"30.3"30.3"30.27"30.27"30.24"30.18"30.15"30.15"30.15"30.15"30.18"30.21"30.21"30.24"30.24"30.24"30.24"30.21"30.21"30.21"
Wind Speed 9.6 mph9.3 mph9.4 mph9.5 mph9.4 mph7.7 mph6.5 mph5.8 mph5.2 mph5.3 mph5.4 mph3.5 mph3.7 mph3.1 mph5.8 mph7.8 mph8.9 mph9.2 mph9.4 mph9.4 mph8.6 mph9 mph9.1 mph9.3 mph9.2 mph9.1 mph8.9 mph9.4 mph8.9 mph6.5 mph3.8 mph2.8 mph1.9 mph0.9 mph0.4 mph0.8 mph1.2 mph2.2 mph3 mph5.4 mph6.7 mph7.2 mph7.3 mph7.4 mph7.3 mph7.3 mph7.2 mph7.5 mph
Wind
Direction
15°
NNE
15°
NNE
11°
N
14°
NNE
16°
NNE
10°
N

N

N

N
353°
N
354°
N
359°
N
10°
N
12°
NNE
16°
NNE
16°
NNE
11°
N
12°
NNE
15°
NNE
14°
NNE
20°
NNE
19°
NNE
16°
NNE
15°
NNE
15°
NNE
18°
NNE
18°
NNE
16°
NNE
18°
NNE
19°
NNE
28°
NNE
41°
NE
45°
NE
44°
NE
97°
E
170°
S
163°
SSE
151°
SSE
48°
NE
25°
NNE
22°
NNE
20°
NNE
19°
NNE
21°
NNE
21°
NNE
21°
NNE
22°
NNE
21°
NNE

Daily Forecast

Date High Low Precip. Humidity
Today
Nov 27

Clear
66 °F
33 °F
0%
12%
Sunday
Nov 28

Clear
68 °F
47 °F
0%
20%
Monday
Nov 29

Clear
67 °F
50 °F
0%
24%
Tuesday
Nov 30

Clear
67 °F
50 °F
0%
25%
Wednesday
Dec 1

Clear
65 °F
46 °F
0%
22%
Thursday
Dec 2

Clear
65 °F
47 °F
0%
27%
Friday
Dec 3

Clear
67 °F
47 °F
0%
21%
Saturday
Dec 4

Clear
64 °F
46 °F
0%
31%
Sunday
Dec 5

Clear
70 °F
47 °F
0%
30%
Monday
Dec 6

Clouds
65 °F
47 °F
0%
26%
Tuesday
Dec 7

Clouds
60 °F
46 °F
0%
33%
Wednesday
Dec 8

Clear
57 °F
40 °F
0%
36%
Thursday
Dec 9

Clouds
56 °F
41 °F
0%
37%
Friday
Dec 10

Clouds
55 °F
41 °F
0%
49%
Saturday
Dec 11

Rain
60 °F
44 °F
40%
45%
Sunday
Dec 12

Rain
50 °F
43 °F
78%
48%

Temperature 8-14 Day Outlook



Precipitation 8-14 Day Outlook




Quick Links
Gunlock Reservoir News
Gunlock Reservoir Photos
Gunlock Reservoir Videos




About Us
Contact Us
Site Map
Search Site
Advertise With Us
   
Gunlock.LakesOnline.com
THE GUNLOCK RESERVOIR WEBSITE

Copyright 2021, Lakes Online
Privacy    |    Legal